Wind_Speed
23 22 25 27 23 24 28 28 27 28 27 26 25 23 23 23 22 21 20 19 16 14 14 14 14 15 14 15 15 16 16 15 14 13 12 11 10 9 9 9 10 10 10 10 10 10 11 10 10 10 11 12 12 12 12 12 10 10 9 9 8 7 7
20 18 20 24 22 21 23 25 27 28 28 28 26 24 24 24 23 22 21 19 16 14 12 13 14 15 15 15 15 16 16 15 14 13 12 11 10 11 11 10 10 10 9 9 9 10 11 11 11 11 12 13 12 12 12 11 10 9 9 9 8 8 8
21 19 18 22 24 22 19 20 24 26 28 28 28 26 25 25 25 24 22 19 16 13 12 11 13 15 15 15 15 16 16 15 14 14 12 12 12 12 11 10 9 8 8 8 9 10 11 11 11 12 13 14 13 13 12 11 9 9 8 8 8 8 7
23 22 21 23 26 26 22 19 19 22 24 26 27 27 26 27 26 25 23 19 16 13 12 11 11 13 15 15 15 15 16 15 15 15 14 13 12 11 10 9 8 8 9 9 9 10 11 11 12 12 14 14 13 12 12 10 8 8 7 7 6 6 6
27 26 26 25 24 26 24 20 18 19 21 22 26 28 27 27 27 25 23 19 16 13 12 11 12 13 15 16 16 16 15 15 15 15 14 12 12 10 9 9 9 9 9 9 10 10 10 11 11 12 13 14 13 12 12 10 7 7 7 6 5 5 6
32 31 30 29 28 27 25 22 20 18 19 21 24 26 27 27 27 26 23 20 17 14 13 13 13 14 16 16 16 16 15 16 16 14 13 12 11 11 10 10 10 9 8 8 9 10 10 11 11 12 13 14 13 13 12 10 8 7 7 8 6 6 7
36 35 33 33 33 31 29 26 23 19 19 21 21 23 25 27 27 26 23 21 20 18 16 15 14 14 16 17 16 16 16 16 16 15 14 14 13 12 11 10 9 8 8 8 9 10 11 11 12 12 13 14 14 13 12 11 9 7 8 9 7 7 8
37 37 36 36 37 36 32 29 27 22 20 22 21 21 24 27 28 26 23 23 24 23 21 18 16 16 16 18 17 16 17 17 17 15 15 15 14 12 11 10 9 9 8 8 10 11 12 12 12 12 13 13 14 13 12 11 10 8 10 10 8 8 9
40 38 36 38 40 39 33 32 31 25 20 22 23 22 24 28 30 26 23 24 25 26 26 22 18 17 17 18 18 17 17 17 17 16 16 15 14 13 12 11 10 9 9 9 10 12 12 12 12 13 13 13 14 14 12 11 10 10 11 11 9 9 10
42 40 38 40 42 41 36 33 36 32 25 24 24 23 25 29 31 28 23 25 27 28 28 24 19 18 18 20 19 18 17 18 17 17 17 16 15 14 13 12 11 10 10 10 10 12 12 12 13 13 13 13 13 13 13 11 10 11 12 12 10 10 11
43 40 38 40 42 42 39 35 38 39 32 27 26 25 25 28 32 32 28 28 30 29 27 25 21 19 20 21 21 19 18 18 18 17 17 17 16 16 14 13 11 11 11 11 11 12 13 13 13 13 14 14 13 13 13 11 12 12 12 12 11 12 12
43 41 41 41 42 41 39 37 39 41 35 30 30 28 26 27 31 34 34 31 31 29 27 25 22 20 20 22 22 21 20 19 18 17 17 17 17 16 15 13 12 11 12 13 13 13 14 14 14 13 14 15 14 13 13 12 11 12 12 13 12 13 13
48 47 47 46 47 45 41 39 40 40 37 32 31 29 25 25 29 34 37 35 33 32 28 25 23 21 21 22 23 22 20 19 18 17 17 18 18 16 15 13 12 13 13 14 14 14 14 15 14 14 14 15 15 14 13 12 11 11 12 13 14 14 14
57 52 49 50 51 49 45 43 41 41 39 35 32 30 25 23 25 30 35 36 35 33 30 27 24 22 21 22 23 23 22 20 19 18 18 18 18 16 15 14 13 14 15 14 14 15 15 16 15 14 15 15 15 14 13 13 12 12 12 14 15 15 15
58 55 53 53 52 51 48 46 44 43 42 39 35 33 29 26 25 27 31 33 35 34 32 29 26 24 22 22 23 24 23 22 20 19 19 18 17 16 15 14 14 15 16 15 15 15 16 16 16 15 15 15 15 14 13 14 14 14 14 14 16 16 15
55 53 53 52 48 48 49 48 45 44 44 42 40 37 33 30 29 30 30 31 34 35 34 31 28 25 24 23 23 24 24 23 21 20 19 17 17 17 16 15 15 16 17 16 16 16 16 16 16 15 15 16 15 14 14 14 15 15 15 15 15 16 16
54 50 49 50 46 44 46 46 44 44 45 45 44 40 35 33 33 34 33 32 33 35 35 34 30 27 25 24 23 24 25 24 23 21 19 18 18 18 17 16 16 17 18 17 17 17 17 17 16 16 16 16 16 16 15 16 16 16 17 17 16 16 17
55 53 53 54 49 41 39 40 40 41 45 46 46 42 38 36 36 36 36 34 33 34 36 35 33 29 27 24 23 24 25 25 24 22 21 19 19 19 18 17 17 18 19 18 17 17 17 17 17 17 17 17 17 17 17 17 17 18 18 18 18 17 17
57 59 57 56 51 39 32 36 39 40 44 47 46 43 40 39 39 38 38 36 34 35 36 36 35 31 28 25 23 24 25 26 26 24 23 21 20 20 19 18 19 19 19 18 18 18 18 18 18 17 17 18 18 19 18 18 19 19 19 20 20 19 18
56 62 59 52 50 43 34 35 40 41 43 47 47 46 43 41 40 40 40 39 36 36 37 37 36 33 29 27 25 24 25 26 27 26 25 23 22 21 20 20 20 20 19 19 18 18 18 19 19 18 18 18 20 20 20 20 20 20 20 21 21 21 19
51 59 59 48 44 44 38 35 40 43 45 47 47 47 45 42 43 43 42 40 38 38 38 38 37 35 32 29 26 25 25 26 26 27 26 26 25 23 22 21 21 20 20 19 19 19 19 19 20 19 19 20 21 21 20 20 21 21 21 21 21 21 20
45 53 60 53 44 43 39 35 38 41 44 46 47 46 45 44 45 44 42 41 39 39 39 38 37 36 34 31 28 26 26 26 26 27 27 27 27 26 24 23 22 21 20 20 20 20 20 20 20 20 20 21 21 21 21 21 21 21 21 21 21 21 20
42 47 56 56 48 45 43 38 37 37 40 44 46 46 46 46 47 45 42 40 38 37 38 38 37 36 35 33 30 28 28 26 26 27 28 29 29 28 27 25 23 22 22 22 22 22 22 21 21 21 21 22 22 21 21 21 21 21 21 21 20 21 21
35 41 47 51 48 45 43 41 38 36 39 44 47 46 45 43 44 45 43 40 38 38 36 35 35 36 36 36 33 31 29 28 27 28 29 30 30 29 28 26 25 24 24 24 23 23 23 22 21 22 22 23 23 22 21 21 21 21 21 21 20 21 21
29 34 39 42 41 39 40 41 40 37 37 38 40 43 43 41 41 42 42 40 39 38 36 35 35 36 38 38 36 33 30 30 29 28 28 30 30 30 30 28 27 26 26 25 24 24 24 23 22 22 23 23 23 23 22 21 21 21 21 21 21 21 21
28 29 31 32 33 36 40 42 42 39 36 34 33 35 38 38 40 43 44 43 42 40 38 37 35 35 37 39 38 35 32 31 31 30 29 29 30 31 31 30 29 28 27 26 26 26 25 24 23 23 24 24 24 23 23 21 21 21 21 22 22 21 21
33 32 32 33 35 38 40 43 44 42 40 39 37 35 33 34 36 39 40 41 42 42 41 40 36 33 35 37 37 36 35 34 33 32 30 29 29 30 30 31 31 30 29 28 28 28 27 25 24 24 24 24 24 24 23 22 21 22 22 23 22 22 23
34 34 36 38 40 41 42 43 46 46 46 45 43 41 38 36 35 36 36 38 40 40 40 40 38 34 31 32 34 34 34 34 34 33 31 29 28 28 29 31 32 31 31 30 30 29 28 27 26 25 25 24 24 24 23 23 22 22 22 23 23 23 24
30 31 34 37 39 42 42 42 44 46 48 48 47 45 44 42 40 39 38 37 37 38 38 37 37 35 31 30 32 31 31 33 34 33 32 30 27 26 28 29 31 32 32 32 31 31 30 29 27 27 26 25 25 24 23 23 23 22 23 23 24 24 24
29 30 32 34 36 39 41 41 41 42 45 48 49 48 47 47 45 44 42 40 38 36 36 36 35 35 34 33 33 29 27 31 34 33 32 31 28 26 26 27 30 32 33 33 32 32 32 31 29 28 27 26 26 24 23 23 23 23 23 23 24 25 25
29 31 33 33 33 35 36 38 38 39 42 45 48 49 49 49 48 47 46 45 42 38 38 39 37 36 35 36 36 31 28 32 35 35 33 31 30 28 28 27 27 30 32 33 34 34 34 32 30 29 29 28 27 25 24 24 24 23 23 24 24 25 25
29 30 32 33 34 34 34 35 37 39 40 42 44 47 48 50 50 48 47 47 47 44 42 42 39 36 36 37 38 35 32 33 35 36 36 33 31 31 32 31 28 28 30 32 34 36 35 34 31 30 30 30 28 26 24 24 24 24 24 25 26 27 27
32 32 32 33 34 33 32 33 35 37 38 39 40 43 47 50 52 50 46 45 47 48 46 45 42 37 37 40 41 37 34 34 35 37 37 36 35 34 35 35 32 29 29 31 33 36 37 36 33 31 31 31 29 27 25 26 26 25 25 26 27 28 29
34 34 34 33 33 33 31 30 30 32 34 34 36 39 42 47 51 52 48 45 46 48 48 49 46 38 37 42 45 42 39 36 35 37 38 39 40 39 38 37 35 33 30 30 32 35 37 38 36 33 32 32 31 29 28 28 28 27 27 27 29 30 30
35 35 34 35 35 35 34 32 31 31 32 33 33 34 36 40 46 50 50 48 47 48 48 50 50 42 38 42 46 47 44 40 36 37 41 44 45 45 43 41 39 36 34 34 34 35 36 38 39 36 33 34 34 32 30 30 30 30 29 29 29 30 31
35 35 34 34 35 36 35 34 33 32 33 33 33 32 32 36 40 45 49 49 48 47 47 50 51 46 41 43 47 48 48 45 42 42 44 46 47 48 49 47 45 41 39 40 40 39 37 38 40 38 36 36 37 35 33 32 32 32 31 31 30 30 31
34 35 35 35 36 36 36 36 35 34 33 33 32 31 31 33 37 41 45 47 47 46 46 48 51 49 45 45 48 50 50 50 50 50 51 50 48 49 51 52 51 48 45 44 46 46 43 40 40 40 39 38 40 39 36 34 35 34 34 32 31 31 31
Wind_Direction
183 193 201 213 229 230 223 219 215 215 217 219 221 222 223 222 221 224 227 223 221 221 221 220 217 215 215 216 218 220 220 220 221 221 222 226 230 232 239 251 263 272 277 283 292 298 302 303 305 308 305 302 304 302 299 296 294 291 286 278 277 284 286
185 189 193 202 212 218 219 216 214 215 217 218 220 223 226 226 224 226 228 224 220 220 219 219 217 215 217 219 221 221 221 220 218 219 222 224 226 229 235 245 256 269 278 283 289 291 292 294 299 301 298 298 299 297 297 298 291 285 281 277 277 281 280
195 198 196 194 199 208 217 218 215 216 219 219 219 222 226 228 227 226 228 225 222 221 219 221 222 219 220 224 225 223 220 217 215 215 218 220 223 226 233 244 256 268 273 273 277 279 284 289 294 295 296 300 302 299 299 295 284 278 276 278 280 279 274
205 209 207 200 198 205 218 224 222 220 221 221 218 219 224 226 226 226 227 224 222 224 223 226 229 224 222 226 228 225 219 215 214 214 217 220 225 228 235 248 257 262 262 262 267 272 280 286 291 295 299 304 305 300 295 289 278 272 273 279 282 274 264
214 218 216 211 209 211 216 225 232 229 225 222 217 216 220 223 223 224 225 224 224 229 230 232 233 229 227 228 229 227 220 217 217 218 220 222 228 231 236 245 250 254 258 261 265 270 279 286 292 296 297 299 301 296 291 285 270 264 268 272 274 270 262
219 224 224 222 223 223 223 226 234 235 231 229 220 217 220 220 221 223 223 225 229 232 237 237 235 232 231 230 230 228 222 220 220 219 220 220 224 229 233 241 249 256 260 263 270 275 282 289 293 295 294 296 298 294 291 283 261 252 262 263 266 272 268
220 225 229 227 225 225 225 228 237 240 238 236 226 220 222 221 220 221 222 228 235 238 242 242 237 232 231 230 229 228 224 222 221 218 217 218 222 227 233 242 249 257 261 266 276 280 284 289 293 295 297 299 299 293 288 278 258 245 255 260 266 272 267
221 224 229 230 226 226 225 226 236 242 241 240 232 222 223 222 219 218 222 231 237 242 245 244 239 232 230 231 229 227 226 223 221 219 219 221 225 229 234 242 248 257 265 270 276 281 285 290 293 298 301 303 300 292 283 270 253 242 249 257 263 267 265
223 222 228 230 226 227 227 224 228 234 239 240 234 225 221 220 217 217 225 233 235 239 242 240 239 233 230 231 229 228 227 223 221 222 223 224 226 229 233 240 247 256 265 270 275 281 287 291 294 297 300 300 296 291 283 265 246 239 245 252 257 262 265
224 225 229 228 223 225 226 221 220 225 237 242 236 230 225 221 219 218 227 236 235 235 237 237 236 234 233 231 229 228 226 222 220 223 225 225 225 228 232 237 244 252 261 269 275 280 286 290 294 297 297 295 293 291 284 261 237 235 243 251 256 258 259
218 224 226 219 217 222 221 215 213 220 234 242 237 234 230 225 223 219 221 233 236 232 232 234 234 234 235 233 230 228 224 221 221 223 225 226 225 228 231 235 240 248 258 266 272 277 283 287 291 294 293 292 291 290 282 257 229 228 242 248 252 253 252
218 223 225 217 214 219 219 214 214 220 228 235 235 233 231 228 226 221 217 225 235 233 228 229 232 234 237 235 231 229 225 223 223 225 227 227 227 228 230 233 237 245 254 262 269 276 281 286 289 291 293 293 291 287 282 260 227 221 238 246 247 249 249
236 231 230 229 226 225 223 222 222 223 224 227 228 228 228 227 225 222 218 221 230 232 228 227 230 235 239 237 233 230 227 226 226 226 227 227 227 227 227 229 234 243 251 259 267 273 279 283 286 289 291 294 292 288 283 266 233 216 232 244 247 249 250
250 245 237 235 234 231 229 228 228 226 223 223 223 222 226 227 225 225 224 224 229 232 230 227 229 234 240 239 234 230 229 228 227 227 227 227 228 227 226 227 232 241 249 257 264 270 276 280 283 286 288 291 293 290 283 270 243 218 224 241 247 250 252
252 256 249 241 237 233 230 230 231 229 225 225 223 222 227 232 231 231 230 230 232 233 231 228 228 232 238 240 235 231 229 230 229 228 228 228 228 227 227 227 232 240 247 253 260 266 272 277 281 284 285 287 290 290 284 274 252 228 224 237 247 251 254
245 254 255 252 248 241 234 230 230 230 228 228 226 225 228 232 234 235 235 234 234 233 232 229 228 230 235 239 237 232 230 230 230 229 228 227 226 227 228 228 232 238 244 250 256 263 270 276 281 283 283 284 286 287 283 275 261 241 230 235 246 252 255
241 248 252 255 259 259 249 235 228 229 230 228 226 228 229 230 232 234 235 236 235 234 233 230 228 230 234 237 237 233 230 228 229 229 226 224 225 227 228 229 232 237 243 248 253 260 268 274 279 281 281 284 285 284 280 275 268 255 240 237 244 252 256
235 243 249 251 255 261 258 244 233 229 227 225 225 229 231 230 231 233 234 236 237 236 234 230 228 230 232 235 236 235 231 228 227 228 226 225 226 228 230 230 233 238 242 247 252 258 265 271 276 279 279 282 284 283 281 277 272 264 252 244 245 250 256
229 234 243 248 248 247 247 244 240 232 225 223 226 230 232 231 230 232 233 234 235 236 235 232 229 228 230 233 235 236 233 229 226 226 226 228 229 230 231 231 234 240 244 247 251 256 262 267 272 276 277 279 281 282 283 281 276 269 262 253 248 249 254
228 229 234 243 244 239 238 240 238 234 229 228 228 230 231 230 229 230 230 231 233 235 234 232 229 227 227 230 232 236 237 234 229 226 227 230 232 232 231 232 235 240 244 247 250 254 260 265 270 272 274 276 278 281 284 284 281 275 269 261 253 250 253
232 229 229 235 238 233 233 237 236 234 233 233 232 231 229 228 228 228 227 228 230 231 231 230 227 226 226 228 229 234 239 239 234 230 229 230 232 232 231 232 235 239 242 245 248 252 257 262 267 270 271 273 275 279 282 284 284 282 276 268 259 252 252
234 229 227 230 231 226 228 236 239 237 235 234 232 230 227 227 227 226 224 225 225 225 227 228 226 225 226 227 229 234 239 242 239 235 231 231 231 231 231 232 234 237 240 242 245 250 254 259 264 268 270 271 272 276 279 283 285 285 281 275 265 255 252
230 228 227 225 224 221 223 232 239 241 241 239 236 234 231 229 227 225 224 223 222 222 223 224 224 223 224 226 228 233 238 241 242 239 234 231 232 232 231 232 233 235 237 240 244 248 252 257 262 266 268 269 270 273 276 280 284 285 283 278 269 258 252
227 228 224 218 217 220 225 232 238 241 242 241 240 243 246 243 236 232 231 230 226 222 219 219 219 219 221 223 225 231 237 239 241 240 236 233 232 232 232 231 231 233 236 239 243 248 251 255 260 264 267 268 269 270 273 277 280 283 283 278 270 260 254
224 225 220 215 219 226 231 235 238 241 243 242 240 243 248 250 246 245 249 252 246 235 224 219 218 217 218 220 222 227 232 236 238 239 237 236 233 232 232 232 230 231 234 237 241 246 250 254 258 262 265 267 268 268 271 274 278 281 281 277 270 261 256
218 219 217 219 225 230 233 235 236 240 244 246 245 243 242 244 243 245 253 259 260 254 240 229 225 221 219 219 221 224 227 231 235 237 237 236 235 234 234 234 232 231 232 235 240 246 249 252 256 260 264 266 267 268 269 272 275 278 279 276 270 263 258
213 216 217 220 225 230 233 235 237 241 245 246 246 247 248 249 246 245 247 250 256 258 249 241 237 232 227 225 225 226 226 228 231 234 236 236 235 237 238 238 236 233 232 234 239 245 249 251 255 259 263 266 267 267 268 271 274 277 279 279 274 266 259
215 218 219 222 225 228 232 234 236 240 245 248 246 245 248 251 250 250 248 247 250 251 247 246 247 246 242 235 232 232 231 230 230 232 236 237 236 239 241 242 240 237 235 236 239 244 248 251 254 258 263 266 268 268 269 271 273 276 278 280 278 270 261
224 225 225 226 228 231 234 236 237 238 242 247 248 247 246 246 248 250 250 250 251 248 245 247 249 251 251 242 236 237 237 233 232 233 236 239 237 238 242 244 244 242 239 239 240 243 247 249 252 257 261 265 267 268 269 270 272 275 278 280 280 275 268
225 227 228 229 230 232 235 237 238 239 241 244 247 249 248 246 247 250 250 249 252 252 249 248 246 249 252 243 236 238 237 233 232 232 237 241 239 239 243 246 247 247 244 243 242 243 246 249 252 255 259 262 265 266 268 269 270 273 277 279 279 277 272
224 226 230 232 232 233 235 236 237 240 241 243 245 247 248 247 247 249 249 248 250 251 249 246 243 247 249 240 235 236 231 227 230 230 234 240 242 243 247 250 250 250 249 247 245 245 247 249 252 255 256 259 263 264 266 267 269 272 275 277 278 276 272
227 227 229 233 235 236 239 241 242 243 244 245 245 245 246 246 246 247 247 247 248 248 247 245 245 251 249 236 232 235 230 223 227 230 232 237 241 243 248 253 255 256 254 251 248 248 250 251 252 254 256 258 260 263 264 265 267 269 272 274 275 275 272
233 233 233 234 236 238 242 246 247 248 248 248 248 247 247 246 245 246 247 248 247 246 247 245 243 252 255 241 231 235 237 231 229 230 233 236 238 241 246 252 258 260 259 257 253 251 252 253 253 253 255 258 259 260 261 262 263 265 267 270 272 274 273
236 237 238 239 239 240 244 249 251 250 250 251 251 249 249 249 248 246 246 248 248 247 247 244 240 245 255 245 232 231 238 241 235 232 233 237 239 240 243 248 256 263 264 263 260 256 254 254 254 254 255 257 258 256 256 257 259 261 263 266 269 272 274
238 239 241 242 243 244 247 252 256 255 253 253 253 252 251 250 250 247 245 247 249 249 247 244 240 241 247 242 232 228 234 241 241 237 236 237 238 240 242 244 251 258 265 268 267 263 259 256 255 255 255 255 255 254 253 254 255 257 260 263 267 270 273
239 241 243 244 246 248 250 254 259 259 256 254 254 254 251 249 248 247 245 246 249 249 247 242 239 240 242 239 233 229 230 235 238 241 243 243 239 240 242 243 246 251 258 265 268 268 265 261 258 256 255 254 254 253 252 252 254 256 258 261 265 268 271
238 240 243 245 248 251 253 256 259 259 256 253 253 252 249 246 246 246 245 246 249 249 246 241 237 238 240 240 237 232 230 231 233 237 244 248 246 244 244 245 246 247 250 256 262 266 266 264 262 258 255 253 254 253 252 253 254 256 258 261 264 268 270
Height
3131 3136 3140 3143 3145 3148 3151 3153 3155 3156 3157 3158 3159 3160 3161 3163 3164 3165 3166 3167 3168 3170 3171 3172 3173 3174 3175 3176 3177 3179 3180 3181 3182 3183 3183 3184 3184 3185 3185 3186 3187 3187 3188 3188 3189 3189 3189 3189 3189 3189 3189 3189 3189 3189 3188 3188 3188 3188 3188 3188 3188 3188 3188
3129 3133 3136 3140 3142 3145 3149 3151 3153 3153 3154 3155 3156 3158 3160 3161 3162 3163 3164 3165 3167 3168 3169 3170 3171 3172 3173 3174 3176 3177 3178 3179 3180 3181 3182 3182 3183 3183 3184 3185 3185 3186 3187 3187 3187 3187 3187 3187 3187 3187 3187 3187 3187 3187 3187 3187 3187 3187 3187 3187 3187 3186 3186
3126 3129 3132 3136 3139 3143 3146 3149 3151 3151 3152 3153 3154 3156 3158 3159 3161 3161 3162 3163 3165 3166 3167 3168 3169 3170 3171 3173 3174 3175 3176 3177 3178 3179 3180 3180 3181 3181 3182 3183 3184 3185 3185 3186 3185 3185 3185 3185 3185 3185 3185 3186 3186 3186 3186 3186 3186 3186 3186 3185 3185 3185 3185
3124 3126 3129 3132 3136 3140 3143 3146 3149 3150 3150 3151 3152 3154 3155 3157 3158 3160 3161 3162 3163 3164 3164 3165 3166 3168 3169 3171 3172 3173 3174 3175 3176 3177 3177 3178 3179 3179 3180 3181 3182 3183 3184 3184 3184 3183 3183 3184 3184 3184 3184 3184 3184 3184 3184 3184 3185 3184 3184 3184 3184 3184 3184
3121 3123 3126 3129 3133 3137 3141 3144 3146 3148 3149 3149 3150 3151 3153 3155 3157 3158 3159 3160 3161 3162 3163 3163 3164 3165 3166 3168 3170 3171 3172 3173 3174 3174 3175 3176 3177 3177 3178 3179 3180 3181 3182 3182 3182 3182 3182 3182 3182 3183 3182 3182 3182 3182 3182 3183 3183 3183 3183 3183 3183 3183 3183
3118 3121 3124 3127 3130 3134 3139 3142 3144 3146 3147 3148 3148 3150 3152 3153 3155 3156 3157 3158 3159 3160 3161 3162 3162 3163 3164 3166 3167 3169 3170 3170 3171 3172 3173 3174 3174 3175 3176 3177 3178 3179 3180 3180 3180 3180 3180 3181 3181 3181 3180 3180 3180 3180 3181 3181 3182 3182 3182 3182 3182 3182 3182
3115 3117 3120 3124 3126 3131 3135 3138 3141 3144 3145 3146 3147 3149 3150 3151 3152 3154 3155 3156 3157 3158 3159 3160 3161 3161 3162 3164 3165 3166 3167 3168 3169 3170 3170 3171 3172 3173 3173 3174 3176 3177 3177 3178 3178 3178 3178 3179 3179 3179 3179 3178 3178 3178 3179 3179 3180 3181 3181 3180 3181 3181 3181
3112 3114 3117 3120 3123 3127 3131 3134 3137 3140 3143 3144 3145 3146 3148 3149 3150 3151 3152 3154 3155 3157 3158 3158 3159 3159 3160 3161 3163 3164 3165 3166 3166 3167 3168 3169 3170 3170 3171 3172 3173 3174 3175 3175 3175 3176 3176 3176 3177 3177 3177 3177 3176 3176 3177 3178 3178 3179 3179 3179 3179 3180 3180
3109 3111 3113 3116 3119 3123 3127 3130 3133 3136 3139 3142 3143 3143 3145 3146 3147 3149 3150 3152 3153 3155 3156 3156 3157 3157 3158 3159 3160 3161 3163 3163 3164 3165 3166 3167 3167 3168 3169 3170 3171 3171 3172 3173 3173 3173 3174 3174 3175 3175 3175 3175 3174 3174 3175 3176 3177 3177 3177 3177 3178 3178 3178
3105 3108 3110 3112 3116 3119 3123 3126 3129 3132 3135 3138 3140 3140 3141 3143 3145 3146 3148 3149 3151 3153 3154 3154 3155 3155 3156 3157 3158 3159 3160 3161 3162 3162 3163 3164 3165 3165 3166 3167 3168 3169 3169 3170 3171 3171 3171 3172 3172 3173 3173 3173 3173 3173 3173 3174 3175 3175 3176 3176 3176 3177 3177
3098 3103 3106 3109 3112 3115 3118 3122 3126 3129 3131 3134 3137 3138 3138 3140 3141 3143 3145 3147 3148 3150 3151 3152 3152 3152 3153 3154 3156 3157 3158 3158 3159 3160 3161 3161 3162 3163 3164 3165 3166 3167 3167 3168 3168 3169 3169 3170 3170 3171 3171 3170 3171 3171 3172 3172 3173 3174 3174 3175 3175 3175 3175
3091 3095 3100 3104 3107 3110 3113 3117 3121 3125 3128 3131 3134 3135 3135 3136 3137 3139 3141 3144 3146 3147 3148 3149 3149 3150 3151 3152 3153 3154 3155 3155 3156 3157 3158 3159 3160 3161 3162 3163 3164 3165 3165 3165 3166 3167 3167 3168 3168 3169 3169 3168 3169 3169 3170 3171 3172 3173 3173 3173 3173 3173 3173
3088 3088 3093 3098 3101 3104 3108 3112 3116 3120 3124 3127 3130 3132 3132 3133 3134 3135 3138 3140 3142 3144 3145 3146 3146 3147 3148 3149 3151 3152 3152 3153 3154 3155 3155 3156 3157 3158 3159 3161 3162 3162 3163 3163 3164 3164 3165 3165 3166 3166 3166 3166 3166 3167 3168 3169 3171 3171 3171 3171 3171 3171 3172
3086 3086 3088 3090 3093 3096 3102 3107 3111 3115 3118 3121 3125 3127 3129 3130 3131 3132 3134 3136 3139 3140 3142 3143 3144 3145 3146 3147 3149 3150 3150 3150 3151 3152 3153 3154 3155 3156 3157 3158 3159 3160 3160 3161 3162 3162 3163 3163 3163 3164 3164 3164 3165 3165 3166 3167 3168 3169 3169 3169 3169 3169 3170
3083 3085 3086 3087 3087 3089 3095 3102 3107 3110 3113 3116 3120 3123 3125 3127 3128 3129 3131 3133 3135 3136 3138 3140 3141 3142 3143 3145 3146 3147 3148 3148 3149 3150 3150 3151 3152 3153 3155 3156 3157 3158 3158 3159 3159 3160 3160 3161 3161 3162 3162 3162 3163 3163 3165 3165 3166 3167 3167 3167 3167 3167 3167
3080 3082 3084 3086 3086 3086 3089 3095 3101 3106 3109 3112 3115 3118 3121 3123 3124 3126 3127 3129 3131 3133 3135 3136 3138 3140 3141 3143 3144 3145 3146 3146 3147 3148 3148 3150 3150 3151 3152 3154 3155 3156 3156 3157 3157 3158 3158 3158 3159 3160 3160 3160 3161 3161 3162 3162 3163 3164 3165 3165 3165 3165 3165
3076 3080 3082 3085 3088 3088 3088 3091 3096 3101 3104 3107 3111 3114 3117 3119 3121 3122 3123 3125 3127 3129 3131 3133 3135 3137 3139 3140 3141 3142 3143 3144 3145 3145 3146 3147 3148 3149 3150 3151 3153 3154 3154 3155 3155 3155 3156 3156 3157 3157 3158 3158 3158 3158 3159 3159 3160 3161 3162 3162 3163 3163 3163
3073 3077 3079 3081 3085 3088 3088 3091 3095 3097 3100 3103 3107 3110 3113 3116 3118 3119 3120 3122 3124 3126 3128 3130 3132 3134 3136 3137 3139 3140 3141 3141 3142 3143 3144 3145 3146 3147 3148 3149 3150 3151 3152 3153 3153 3154 3154 3155 3155 3155 3155 3156 3156 3156 3156 3156 3157 3157 3159 3160 3160 3161 3161
3069 3073 3075 3078 3082 3084 3085 3089 3093 3094 3097 3100 3104 3107 3110 3112 3114 3115 3117 3118 3120 3122 3124 3126 3129 3131 3133 3134 3136 3137 3138 3139 3139 3140 3141 3142 3143 3144 3145 3146 3147 3148 3149 3150 3151 3152 3152 3153 3153 3153 3153 3153 3153 3153 3153 3154 3154 3155 3156 3157 3158 3158 3159
3063 3068 3072 3075 3078 3081 3082 3084 3088 3090 3093 3096 3099 3102 3105 3107 3110 3112 3113 3115 3116 3118 3120 3122 3125 3127 3129 3131 3132 3134 3135 3136 3137 3138 3138 3140 3141 3141 3142 3143 3145 3146 3147 3148 3149 3150 3150 3150 3151 3151 3151 3151 3151 3151 3151 3151 3151 3152 3153 3154 3155 3156 3156
3059 3063 3067 3070 3073 3077 3079 3081 3084 3086 3089 3091 3093 3096 3100 3103 3105 3107 3108 3110 3112 3114 3116 3118 3121 3123 3126 3127 3129 3130 3132 3133 3134 3135 3136 3137 3138 3139 3140 3141 3142 3143 3145 3146 3147 3147 3148 3148 3148 3148 3149 3149 3148 3148 3148 3148 3149 3149 3150 3151 3152 3153 3154
3054 3057 3060 3064 3069 3073 3075 3078 3080 3082 3084 3086 3088 3091 3094 3097 3100 3102 3104 3105 3107 3109 3111 3114 3117 3119 3122 3124 3125 3127 3128 3130 3131 3132 3133 3134 3134 3136 3137 3138 3139 3140 3142 3143 3144 3145 3145 3145 3146 3146 3146 3146 3146 3146 3145 3145 3146 3146 3147 3148 3149 3150 3151
3049 3051 3053 3058 3065 3069 3072 3073 3075 3077 3079 3082 3084 3086 3088 3091 3094 3096 3097 3099 3102 3104 3106 3109 3112 3115 3118 3120 3121 3123 3125 3127 3128 3130 3130 3131 3131 3133 3134 3135 3136 3138 3139 3140 3141 3142 3142 3143 3143 3143 3144 3143 3143 3143 3143 3143 3143 3144 3144 3145 3146 3147 3148
3044 3047 3048 3053 3060 3066 3068 3070 3071 3073 3075 3078 3081 3083 3085 3087 3089 3091 3091 3092 3095 3099 3102 3105 3107 3110 3113 3115 3116 3118 3121 3123 3125 3126 3127 3128 3129 3130 3131 3132 3134 3135 3136 3137 3138 3139 3140 3140 3140 3140 3141 3141 3141 3140 3140 3140 3140 3141 3142 3142 3143 3144 3146
3041 3043 3046 3051 3058 3062 3064 3066 3068 3071 3072 3074 3076 3079 3082 3086 3089 3091 3092 3091 3092 3094 3096 3098 3101 3104 3107 3109 3111 3113 3116 3118 3120 3122 3124 3125 3126 3127 3128 3129 3130 3131 3132 3134 3135 3136 3136 3137 3137 3137 3137 3138 3138 3137 3137 3137 3138 3138 3139 3139 3140 3142 3143
3039 3042 3045 3049 3055 3058 3060 3062 3065 3067 3070 3072 3073 3074 3076 3080 3084 3087 3090 3091 3092 3093 3094 3093 3095 3099 3102 3104 3105 3108 3110 3113 3115 3118 3120 3121 3123 3124 3125 3126 3127 3128 3129 3131 3132 3133 3133 3134 3134 3134 3134 3134 3135 3135 3134 3134 3135 3135 3136 3136 3137 3139 3141
3037 3039 3043 3046 3050 3052 3055 3057 3060 3063 3066 3067 3069 3071 3073 3075 3078 3081 3084 3086 3088 3091 3093 3092 3091 3093 3096 3098 3100 3102 3105 3107 3110 3113 3115 3117 3119 3121 3122 3123 3123 3124 3126 3127 3128 3129 3130 3131 3131 3131 3131 3131 3132 3132 3131 3131 3132 3132 3133 3133 3134 3136 3138
3033 3036 3039 3042 3045 3048 3050 3053 3056 3059 3061 3062 3064 3066 3068 3071 3073 3075 3078 3080 3082 3086 3090 3092 3091 3091 3091 3093 3095 3097 3100 3103 3106 3109 3111 3114 3116 3117 3119 3119 3120 3121 3122 3123 3124 3126 3127 3127 3128 3127 3128 3128 3129 3128 3128 3128 3129 3129 3129 3130 3131 3133 3134
3031 3033 3036 3038 3041 3043 3046 3048 3051 3053 3055 3057 3059 3061 3063 3066 3069 3071 3074 3076 3078 3082 3085 3088 3091 3092 3092 3091 3091 3093 3096 3100 3102 3105 3108 3110 3112 3114 3115 3116 3117 3118 3119 3120 3121 3122 3123 3124 3124 3124 3125 3125 3125 3125 3125 3125 3125 3126 3126 3127 3128 3129 3130
3028 3030 3032 3035 3037 3039 3042 3044 3046 3048 3050 3052 3054 3056 3059 3062 3066 3068 3070 3073 3075 3078 3081 3084 3087 3091 3093 3092 3091 3091 3094 3097 3099 3102 3104 3106 3107 3109 3111 3113 3114 3115 3116 3117 3117 3118 3119 3120 3121 3121 3121 3122 3122 3122 3122 3122 3122 3122 3123 3124 3124 3125 3126
3024 3027 3029 3031 3034 3036 3038 3040 3042 3044 3046 3047 3050 3052 3055 3058 3061 3063 3066 3069 3071 3074 3077 3080 3082 3086 3088 3089 3089 3089 3090 3092 3094 3097 3099 3101 3103 3105 3107 3109 3110 3111 3113 3114 3114 3114 3115 3116 3117 3117 3118 3118 3119 3119 3119 3119 3119 3119 3119 3120 3121 3121 3122
3021 3023 3025 3028 3030 3032 3035 3037 3038 3040 3042 3043 3045 3048 3050 3052 3055 3058 3061 3064 3067 3070 3073 3075 3078 3080 3082 3083 3084 3084 3084 3084 3086 3090 3094 3096 3099 3101 3103 3105 3107 3108 3109 3111 3111 3111 3111 3112 3113 3114 3114 3115 3115 3116 3116 3115 3115 3115 3116 3116 3117 3117 3118
3017 3019 3022 3024 3026 3029 3031 3032 3034 3036 3037 3039 3041 3043 3045 3047 3050 3054 3056 3059 3061 3064 3068 3071 3073 3076 3078 3079 3080 3080 3079 3079 3081 3085 3088 3091 3093 3096 3099 3101 3103 3105 3106 3107 3108 3108 3108 3108 3109 3110 3111 3111 3112 3113 3113 3112 3112 3112 3112 3112 3113 3113 3114
3014 3016 3018 3020 3022 3024 3026 3028 3030 3031 3033 3035 3036 3037 3040 3042 3045 3049 3052 3053 3056 3058 3062 3065 3068 3071 3073 3074 3075 3076 3076 3076 3079 3081 3083 3085 3088 3090 3094 3097 3099 3101 3102 3103 3104 3104 3104 3105 3105 3106 3107 3107 3108 3109 3109 3108 3108 3108 3108 3109 3109 3109 3110
3010 3012 3014 3015 3017 3019 3021 3023 3025 3027 3028 3030 3031 3032 3035 3037 3040 3043 3046 3048 3050 3053 3056 3058 3062 3066 3068 3069 3070 3071 3071 3073 3076 3078 3079 3080 3082 3085 3089 3092 3094 3096 3097 3099 3100 3100 3100 3100 3101 3102 3104 3104 3104 3104 3104 3104 3104 3104 3105 3105 3105 3106 3106
3006 3008 3010 3011 3013 3015 3017 3019 3020 3022 3023 3024 3026 3027 3029 3032 3033 3036 3039 3042 3044 3047 3050 3052 3055 3059 3063 3065 3065 3066 3066 3069 3072 3074 3074 3075 3079 3082 3085 3087 3090 3091 3092 3094 3095 3095 3096 3096 3096 3098 3100 3099 3099 3099 3100 3100 3100 3100 3101 3101 3102 3102 3103
3002 3003 3005 3006 3008 3010 3012 3014 3015 3017 3018 3019 3020 3022 3024 3026 3028 3030 3032 3035 3038 3041 3044 3046 3048 3052 3056 3059 3060 3060 3061 3063 3066 3069 3069 3071 3074 3078 3080 3083 3085 3086 3087 3088 3089 3090 3091 3092 3092 3093 3094 3094 3094 3094 3095 3095 3096 3096 3097 3097 3098 3099 3099